Wind_Speed
21 22 22 23 23 23 23 22 22 22 22 22 21 21 21 21 20 20 20 20 19 19 20 20 20 21 21 21 22 22 23 23 24 23 24 24 24 25 25 25 25 25 26
22 23 24 24 23 23 23 23 23 23 22 22 22 22 22 22 21 21 21 21 20 20 21 21 21 21 21 22 22 23 23 24 24 23 24 24 23 24 24 25 26 26 26
24 24 24 24 23 23 23 23 23 23 22 22 22 22 22 22 22 22 22 22 22 21 22 22 22 22 22 22 23 23 23 24 24 24 24 24 24 24 24 25 25 26 26
24 25 25 24 24 24 23 22 22 22 23 23 23 22 22 23 22 22 22 22 22 22 22 22 22 22 22 23 23 23 23 23 23 23 23 23 23 24 24 25 25 25 25
25 25 24 25 24 24 23 22 22 23 23 23 22 22 23 23 22 22 22 22 23 23 22 22 21 21 22 22 22 23 23 23 23 23 23 23 23 24 24 24 25 25 25
25 26 25 25 25 24 23 22 22 23 23 23 23 24 23 22 21 21 22 22 22 22 22 21 21 21 21 21 22 22 22 22 22 22 22 23 23 23 23 23 24 24 24
26 26 24 24 23 22 22 22 22 22 22 22 22 21 21 20 20 20 20 21 21 21 20 20 21 21 21 21 21 20 21 22 22 22 22 22 22 22 22 22 23 23 23
25 25 25 24 23 22 22 22 21 21 21 20 20 20 20 21 21 20 21 21 21 21 20 20 21 22 21 21 21 21 21 22 22 22 22 22 22 21 21 21 21 21 22
24 24 25 24 23 23 22 22 22 22 21 21 21 21 21 21 22 22 22 21 20 21 21 21 22 21 21 21 21 21 21 22 22 22 22 21 21 20 21 20 20 21 20
24 24 25 24 23 23 22 22 22 22 21 22 22 22 21 21 22 22 23 21 21 20 20 20 21 21 21 20 20 20 21 21 22 22 21 20 20 19 20 20 19 19 19
25 25 24 24 23 23 22 22 22 22 22 22 22 22 22 22 22 22 22 21 21 20 20 20 20 20 20 20 20 20 20 21 21 20 20 20 19 18 18 18 18 18 18
24 24 24 24 23 23 23 22 22 22 21 21 21 21 22 22 22 22 21 20 20 20 20 19 19 19 19 20 20 20 20 20 20 20 19 19 18 18 17 18 17 17 17
25 24 24 24 23 23 23 22 22 22 21 21 21 21 21 21 21 22 21 20 20 20 19 19 19 19 18 19 20 20 20 20 19 19 18 18 18 18 17 17 17 17 17
25 25 25 25 24 23 23 22 21 20 20 20 20 19 19 19 20 20 20 20 20 20 19 19 19 19 19 20 20 20 20 19 18 18 18 18 18 18 18 18 18 18 18
24 25 25 26 24 23 22 22 21 20 20 20 19 19 19 19 18 18 19 20 21 20 19 19 19 19 19 20 20 19 19 18 18 18 18 18 18 18 18 18 18 18 19
24 25 25 25 23 22 21 21 20 20 19 19 19 19 18 18 17 18 18 18 19 20 19 19 19 19 19 19 19 19 19 19 18 18 18 18 18 18 18 19 19 19 19
24 25 24 24 22 21 21 21 20 20 20 19 19 18 18 18 18 19 19 19 19 19 19 19 19 19 19 19 18 18 19 19 19 19 18 18 18 19 19 19 19 20 19
25 25 24 23 23 21 21 21 21 21 20 20 19 19 19 19 19 20 20 19 19 19 19 19 20 20 19 19 19 19 19 19 19 19 19 19 19 19 20 20 20 20 20
25 25 24 23 23 22 22 22 22 22 22 21 21 21 21 21 21 21 21 20 20 20 20 20 20 20 20 20 20 20 20 20 20 20 19 20 20 20 20 21 21 21 21
24 24 24 24 24 23 23 23 24 24 23 23 23 23 23 23 22 22 22 21 21 21 22 22 21 21 21 21 21 21 21 21 21 21 21 21 21 21 21 21 21 21 21
23 23 23 23 24 24 24 24 24 25 25 25 24 24 24 22 22 22 23 23 22 22 23 23 23 23 22 22 22 22 22 22 22 22 22 22 21 22 22 22 22 21 21
22 23 23 24 24 24 24 24 25 25 25 25 25 25 24 24 23 23 23 24 24 24 24 24 24 23 23 23 23 23 22 23 23 23 23 22 22 22 22 22 21 21 21
23 23 24 23 23 24 24 25 25 26 27 26 25 25 25 25 25 25 25 24 24 25 25 25 25 25 25 24 24 24 24 24 24 24 24 23 23 24 24 24 22 22 22
22 23 23 24 24 24 24 25 26 26 27 27 28 27 26 26 26 26 26 26 26 26 26 26 26 26 26 26 26 26 26 26 26 25 25 25 25 25 25 25 24 24 24
21 22 23 23 24 24 24 25 25 26 27 28 28 28 27 27 27 27 27 27 27 27 27 27 27 27 27 28 28 28 27 27 26 26 27 27 26 26 26 25 25 25 25
22 22 22 23 23 23 24 24 25 26 27 27 27 27 28 28 27 27 28 28 28 28 28 28 28 27 28 28 28 28 28 27 27 28 28 28 28 28 27 27 26 26 26
Wind_Direction
270 271 272 273 272 273 272 272 272 272 270 270 272 272 276 278 280 281 283 285 286 285 285 285 286 285 284 285 286 285 286 285 285 284 282 280 279 279 280 279 278 274 272
270 271 271 272 271 272 272 270 270 269 267 268 270 272 275 278 279 280 283 284 285 285 285 286 285 285 285 286 286 287 288 288 288 286 284 281 279 279 280 281 280 277 274
270 270 272 271 270 271 270 269 268 266 266 267 269 272 275 277 278 280 281 282 284 285 285 285 285 285 285 286 286 287 288 289 289 287 285 283 281 281 282 281 280 278 275
269 271 272 272 271 271 270 268 267 266 268 268 270 272 274 276 277 279 280 281 283 286 287 287 286 285 286 286 287 288 289 290 289 287 285 284 283 283 282 282 280 279 278
269 271 272 273 273 270 267 266 267 266 267 268 269 270 272 273 276 278 279 280 283 285 287 287 285 286 288 288 288 289 290 290 289 287 286 285 284 283 282 282 281 279 278
270 271 272 271 271 268 266 268 268 267 268 269 269 269 269 269 270 273 277 281 284 285 286 288 287 287 287 287 289 291 290 290 289 288 286 285 285 284 284 282 282 281 280
270 272 273 271 271 268 266 267 267 267 270 270 270 269 270 270 272 275 281 283 283 284 284 286 289 289 288 287 288 290 290 290 290 289 288 287 285 285 284 283 283 283 283
272 271 272 272 270 269 269 270 271 271 270 268 269 269 269 271 274 277 281 282 282 282 280 283 288 289 290 290 290 290 290 290 290 290 289 288 286 285 284 282 280 282 284
271 270 270 271 271 271 271 271 271 270 267 267 270 270 270 272 274 276 279 281 282 282 282 283 287 290 290 289 290 291 291 292 291 290 290 289 286 284 284 283 282 283 283
272 271 270 270 271 270 270 270 268 268 269 269 269 270 271 273 275 276 278 279 280 282 282 280 284 287 287 287 290 291 292 292 292 292 292 290 287 285 284 284 284 283 283
270 271 270 269 269 268 268 268 268 267 269 270 270 271 272 273 274 277 276 277 279 282 283 280 281 285 284 285 290 290 290 292 292 291 290 289 287 284 285 286 287 285 285
270 270 270 268 267 267 267 266 267 268 268 268 268 269 270 271 273 275 274 275 278 280 282 281 279 283 283 286 288 290 290 291 290 290 291 290 287 285 283 284 286 283 283
269 268 268 268 268 266 265 266 265 266 267 268 268 270 272 271 272 274 273 275 277 278 279 280 281 283 287 286 287 289 290 290 288 287 289 289 287 286 284 284 286 288 287
267 267 266 266 265 264 263 263 264 265 266 267 270 272 274 273 273 272 271 273 277 278 279 281 281 282 286 288 289 288 287 287 285 286 287 289 288 286 284 284 284 286 287
266 266 265 265 263 263 265 262 261 264 266 268 271 272 274 274 273 272 273 276 277 278 280 282 282 283 284 287 288 288 287 286 287 287 287 288 288 288 286 285 286 285 286
264 263 263 263 262 263 264 264 263 265 266 266 268 270 272 273 273 276 278 281 281 278 280 282 282 282 283 286 288 289 288 287 286 286 286 287 288 290 288 286 286 286 288
264 265 264 262 261 262 263 264 264 264 264 264 266 268 271 274 274 275 278 280 281 279 279 282 283 283 286 286 287 288 289 290 286 285 286 286 288 292 291 289 287 287 289
264 264 262 260 259 259 260 260 262 263 264 266 269 269 269 271 272 274 277 278 280 279 279 281 281 282 285 285 285 286 287 288 287 286 288 289 291 292 292 291 290 290 291
263 261 258 258 258 258 259 258 261 263 264 265 268 270 270 271 272 272 275 277 278 279 280 283 283 281 283 282 282 283 285 286 286 285 287 289 291 290 291 291 291 292 291
262 260 259 258 258 257 258 259 262 264 265 266 267 271 274 273 272 271 273 276 276 277 280 282 283 282 282 281 280 280 282 284 285 285 287 287 288 290 292 292 291 291 289
259 258 259 260 260 259 259 261 263 264 265 266 268 271 274 274 272 272 272 274 275 277 278 280 280 280 280 279 278 278 279 281 283 285 285 287 289 290 291 292 292 289 286
260 260 260 261 261 261 261 263 265 267 268 269 270 270 274 276 275 276 275 275 276 275 276 278 279 280 280 280 278 278 278 279 281 283 284 285 288 291 292 291 289 287 285
262 261 260 260 262 262 262 264 266 266 266 269 271 271 272 275 277 277 275 275 276 276 275 276 276 278 279 278 278 278 278 279 280 282 282 282 284 287 288 289 287 285 284
261 260 261 262 264 265 265 265 265 266 266 268 270 271 272 273 274 275 275 274 275 275 274 275 275 276 277 276 276 277 278 278 280 280 281 282 283 285 286 285 284 284 284
264 263 262 263 264 264 266 267 267 267 267 267 268 270 271 272 273 274 275 276 276 275 275 275 275 275 276 274 276 278 277 277 278 279 280 281 282 284 284 284 283 283 283
265 265 265 265 266 267 269 270 269 269 269 269 269 270 271 272 273 275 275 276 277 277 276 275 275 276 277 277 277 277 276 276 277 278 279 280 281 282 282 282 282 282 283
Height
5807 5808 5808 5808 5808 5808 5808 5809 5809 5809 5809 5810 5810 5810 5810 5810 5809 5809 5809 5809 5808 5808 5807 5807 5806 5805 5805 5804 5803 5802 5801 5800 5799 5799 5798 5797 5797 5796 5796 5796 5796 5796 5796
5802 5802 5802 5803 5803 5803 5803 5803 5803 5803 5804 5804 5805 5805 5805 5804 5804 5804 5803 5803 5803 5802 5802 5801 5801 5800 5799 5798 5797 5796 5794 5793 5792 5792 5791 5790 5790 5789 5789 5789 5789 5788 5788
5796 5796 5796 5797 5797 5797 5797 5797 5797 5798 5798 5799 5799 5799 5799 5799 5799 5798 5798 5797 5797 5797 5796 5795 5795 5794 5793 5792 5790 5789 5788 5787 5785 5784 5783 5783 5782 5782 5782 5782 5781 5781 5781
5790 5790 5790 5790 5791 5790 5790 5791 5791 5792 5792 5792 5793 5793 5793 5793 5792 5792 5792 5792 5791 5790 5790 5789 5788 5787 5786 5785 5784 5783 5782 5780 5779 5778 5777 5776 5776 5775 5775 5775 5774 5774 5774
5783 5784 5784 5784 5784 5784 5784 5785 5785 5785 5786 5786 5786 5786 5787 5787 5786 5786 5786 5786 5785 5784 5784 5783 5782 5781 5780 5779 5778 5777 5775 5774 5773 5772 5771 5770 5770 5769 5768 5767 5767 5766 5766
5777 5777 5777 5777 5778 5778 5778 5779 5779 5779 5780 5780 5780 5780 5781 5781 5780 5780 5780 5780 5779 5778 5778 5777 5776 5775 5774 5773 5772 5770 5769 5768 5767 5766 5765 5764 5763 5762 5761 5761 5760 5760 5760
5770 5770 5770 5771 5771 5772 5772 5773 5773 5773 5773 5773 5774 5774 5774 5775 5775 5774 5774 5774 5773 5772 5772 5771 5770 5769 5768 5767 5766 5764 5763 5761 5761 5760 5759 5758 5757 5756 5755 5754 5753 5753 5753
5764 5764 5764 5764 5765 5765 5766 5766 5767 5767 5767 5768 5768 5768 5768 5769 5769 5769 5768 5767 5767 5766 5766 5765 5764 5763 5762 5761 5759 5758 5757 5756 5755 5754 5753 5752 5750 5749 5748 5748 5747 5746 5746
5757 5758 5758 5758 5759 5759 5760 5760 5761 5761 5761 5761 5762 5762 5762 5762 5762 5762 5762 5761 5761 5760 5759 5759 5758 5757 5756 5755 5754 5752 5751 5750 5749 5747 5746 5745 5744 5743 5742 5742 5741 5740 5740
5751 5751 5751 5752 5752 5753 5753 5754 5754 5754 5754 5755 5755 5756 5756 5756 5756 5756 5755 5755 5754 5754 5753 5753 5752 5751 5750 5749 5748 5747 5746 5745 5743 5742 5740 5739 5738 5738 5737 5736 5735 5734 5734
5744 5744 5745 5745 5746 5746 5747 5747 5748 5748 5748 5748 5749 5749 5749 5750 5749 5749 5748 5748 5748 5747 5747 5746 5746 5745 5744 5743 5742 5741 5740 5739 5737 5736 5735 5734 5733 5732 5731 5730 5730 5729 5728
5737 5738 5738 5739 5739 5740 5740 5741 5741 5742 5742 5742 5742 5743 5743 5743 5743 5742 5742 5742 5741 5741 5741 5740 5740 5739 5738 5738 5737 5735 5734 5733 5732 5731 5730 5729 5728 5727 5726 5726 5724 5723 5722
5731 5731 5732 5733 5733 5733 5734 5734 5735 5735 5735 5736 5736 5736 5736 5736 5736 5735 5735 5735 5735 5735 5735 5735 5734 5733 5732 5732 5731 5730 5728 5727 5726 5726 5725 5724 5723 5722 5721 5721 5720 5719 5718
5724 5724 5724 5725 5726 5726 5727 5728 5728 5729 5729 5729 5730 5730 5730 5730 5730 5730 5730 5730 5730 5729 5729 5729 5728 5727 5727 5726 5725 5724 5723 5722 5721 5720 5720 5719 5718 5717 5716 5715 5715 5714 5713
5717 5717 5718 5718 5719 5719 5720 5721 5722 5722 5723 5723 5723 5724 5724 5724 5724 5724 5724 5724 5724 5723 5723 5723 5723 5722 5722 5721 5720 5719 5718 5717 5716 5715 5714 5714 5713 5712 5711 5710 5709 5708 5707
5711 5711 5711 5711 5712 5712 5713 5715 5715 5716 5716 5717 5718 5718 5718 5718 5718 5718 5719 5718 5718 5718 5717 5717 5717 5716 5716 5715 5714 5713 5712 5711 5710 5710 5709 5708 5707 5706 5705 5704 5703 5702 5701
5704 5704 5704 5704 5705 5706 5707 5708 5709 5710 5710 5711 5712 5712 5713 5713 5713 5713 5713 5713 5712 5712 5711 5711 5711 5711 5710 5709 5708 5707 5707 5706 5705 5704 5703 5702 5702 5701 5700 5699 5698 5696 5695
5696 5697 5697 5698 5699 5700 5701 5702 5703 5704 5704 5705 5706 5706 5707 5707 5707 5707 5707 5707 5706 5706 5705 5705 5704 5704 5703 5703 5702 5701 5701 5700 5700 5699 5698 5697 5696 5695 5694 5693 5691 5690 5689
5689 5690 5690 5691 5692 5693 5694 5695 5696 5697 5698 5699 5699 5699 5699 5700 5700 5700 5700 5700 5700 5699 5699 5698 5698 5697 5697 5696 5696 5695 5695 5694 5694 5693 5692 5691 5690 5689 5687 5686 5685 5683 5682
5681 5682 5683 5684 5685 5686 5687 5688 5689 5690 5691 5692 5692 5692 5691 5692 5693 5693 5693 5693 5693 5692 5692 5692 5691 5690 5690 5689 5689 5689 5688 5688 5687 5687 5686 5685 5684 5682 5681 5679 5678 5676 5675
5674 5675 5676 5677 5678 5679 5680 5681 5682 5683 5683 5684 5685 5685 5684 5684 5684 5685 5685 5686 5686 5685 5685 5684 5684 5683 5683 5682 5682 5682 5681 5681 5680 5680 5679 5678 5677 5676 5674 5672 5671 5670 5669
5666 5667 5668 5669 5670 5671 5672 5673 5674 5674 5675 5676 5677 5677 5677 5677 5677 5677 5677 5677 5678 5678 5678 5677 5677 5676 5675 5675 5675 5674 5674 5674 5673 5672 5671 5670 5669 5668 5667 5665 5664 5663 5662
5660 5660 5661 5662 5663 5663 5664 5665 5666 5666 5667 5667 5668 5669 5669 5669 5669 5669 5670 5669 5669 5669 5669 5669 5669 5669 5668 5668 5667 5667 5666 5666 5665 5665 5664 5663 5662 5661 5659 5658 5656 5656 5655
5653 5654 5654 5655 5656 5656 5656 5657 5657 5658 5659 5659 5660 5660 5661 5661 5661 5661 5661 5661 5661 5661 5661 5661 5661 5660 5660 5660 5659 5658 5658 5657 5657 5656 5655 5655 5654 5653 5651 5650 5649 5648 5647
5646 5647 5647 5648 5648 5648 5649 5649 5649 5650 5650 5650 5651 5651 5652 5652 5652 5652 5652 5652 5652 5652 5652 5652 5652 5651 5651 5651 5650 5649 5649 5649 5648 5647 5647 5646 5645 5644 5643 5642 5641 5640 5639
5640 5640 5640 5640 5641 5641 5641 5641 5641 5641 5642 5642 5642 5642 5643 5643 5643 5643 5643 5643 5643 5643 5643 5642 5642 5642 5642 5642 5641 5641 5640 5640 5639 5639 5638 5637 5636 5635 5634 5633 5632 5631 5631